SCP
0 0 0 0 0 0 0 0 0 0 0 0 0 0 0 0 0 0 0 0 0 0 0 0 0 0 0 0 0 0 0 0 0 0 0 0 0 0 0 0 0 0 0 0
0 0 0 0 0 0 0 0 0 0 0 0 0 0 0 0 0 0 0 0 0 0 0 0 0 0 0 0 0 0 0 0 0 0 0 0 0 0 0 0 0 0 0 0
0 0 0 0 0 0 0 0 0 0 0 0 0 0 0 0 0 0 0 0 0 0 0 0 0 0 0 0 0 0 0 0 0 0 0 0 0 0 0 0 0 0 0 0
0 0 0 0 0 0 0 0 0 0 0 0 0 0 0 0 0 0 0 0 0 0 0 0 0 0 0 0 0 0 0 0 0 0 0 0 0 0 0 0 0 0 0 0
0 0 0 0 0 0 0 0 0 0 0 0 0 0 0 0 0 0 0 0 0 0 0 0 0 0 0 0 0 0 0 0 0 0 0 0 0 0 0 0 0 0 0 0
0 0 0 0 0 0 0 0 0 0 0 0 0 0 0 0 0 0 0 0 0 0 0 0 0 0 0 0 0 0 0 0 0 0 0 0 0 0 0 0 0 0 0 0
0 0 0 0 0 0 0 0 0 0 0 0 0 0 0 0 0 0 0 0 0 0 0 0 0 0 0 0 0 0 0 0 0 0 0 0 0 0 0 0 0 0 0 0
0 0 0 0 0 0 0 0 0 0 0 0 0 0 0 0 0 0 0 0 0 0 0 0 0 0 0 0 0 0 0 0 0 0 0 0 0 0 0 0 0 0 0 0
0 0 0 0 0 0 0 0 0 0 0 0 0 0 0 0 0 0 0 0 0 0 0 0 0 0 0 0 0 0 0 0 0 0 0 0 0 0 0 0 0 0 0 0
0 0 0 0 0 0 0 0 0 0 0 0 0 0 0 0 0 0 0 0 0 0 0 0 0 0 0 0 0 0 0 0 0 0 0 0 0 0 0 0 0 0 0 0
0 0 0 0 0 0 0 0 0 0 0 0 0 0 0 0 0 0 0 0 0 0 0 0 0 0 0 0 0 0 0 0 0 0 0 0 0 0 0 0 0 0 0 0
0 0 0 0 0 0 0 0 0 0 0 0 0 0 0 0 0 0 0 0 0 0 0 0 0 0 0 0 0 0 0 0 0 0 0 0 0 0 0 0 0 0 0 0
0 0 0 0 0 0 0 0 0 0 0 0 0 0 0 0 0 0 0 0 0 0 0 0 0 0 0 0 0 0 0 0 0 0 0 0 0 0 0 0 0 0 0 0
0 0 0 0 0 0 0 0 0 0 0 0 0 0 0 0 0 0 0 0 0 0 0 0 0 0 0 0 0 0 0 0 0 0 0 0 0 0 0 0 0 0 0 0
0 0 0 0 0 0 0 0 0 0 0 0 0 0 0 0 0 0 0 0 0 0 0 0 0 0 0 0 0 0 0 0 0 0 0 0 0 0 0 0 0 0 0 0
0 0 0 0 0 0 0 0 0 0 0 0 0 0 0 0 0 0 0 0 0 0 0 0 0 0 0 0 0 0 0 0 0 0 0 0 0 0 0 0 0 0 0 0
0 0 0 0 0 0 0 0 0 0 0 0 0 0 0 0 0 0 0 0 0 0 0 0 0 0 0 0 0 0 0 0 0 0 0 0 0 0 0 0 0 0 0 0
0 0 0 0 0 0 0 0 0 0 0 0 0 0 0 0 0 0 0 0 0 0 0 0 0 0 0 0 0 0 0 0 0 0 0 0 0 0 0 0 0 0 0 0
0 0 0 0 0 0 0 0 0 0 0 0 0 0 0 0 0 0 0 0 0 0 0 0 0 0 0 0 0 0 0 0 0 0 0 0 0 0 0 0 0 0 0 0
0 0 0 0 0 0 0 0 0 0 0 0 0 0 0 0 0 0 0 0 0 0 0 0 0 0 0 0 0 0 0 0 0 0 0 0 0 0 0 0 0 0 0 0
0 0 0 0 0 0 0 0 0 0 0 0 0 0 0 0 0 0 0 0 0 0 0 0 0 0 0 0 0 0 0 0 0 0 0 0 0 0 0 0 0 0 0 0
0 0 0 0 0 0 0 0 0 0 0 0 0 0 0 0 0 0 0 0 0 0 0 0 0 0 0 0 0 0 0 0 0 0 0 0 0 0 0 0 0 0 0 0
0 0 0 0 0 0 0 0 0 0 0 0 0 0 0 0 0 0 0 0 0 0 0 0 0 0 0 0 0 0 0 0 0 0 0 0 0 0 0 0 0 0 0 0
0 0 0 0 0 0 0 0 0 0 0 0 0 0 0 0 0 0 0 0 0 0 0 0 0 0 0 0 0 0 0 0 0 0 0 0 0 0 0 0 0 0 0 0
0 0 0 0 0 0 0 0 0 0 0 0 0 0 0 0 0 0 0 0 0 0 0 0 0 0 0 0 0 0 0 0 0 0 0 0 0 0 0 0 0 0 0 0
0 0 0 0 0 0 0 0 0 0 0 0 0 0 0 0 0 0 0 0 0 0 0 0 0 0 0 0 0 0 0 0 0 0 0 0 0 0 0 0 0 0 0 0
0 0 0 0 0 0 0 0 0 0 0 0 0 0 0 0 0 0 0 0 0 0 0 0 0 0 0 0 0 0 0 0 0 0 0 0 0 0 0 0 0 0 0 0
Wind_Speed
11 10 9 11 12 13 15 14 13 13 14 14 10 9 9 8 7 7 7 6 6 5 5 5 4 4 4 4 4 4 5 6 6 6 5 5 5 5 5 5 6 5 6 6
8 9 10 14 17 18 19 19 20 20 21 14 10 8 8 8 7 8 8 7 7 7 6 6 6 5 5 5 4 5 6 6 6 5 5 5 5 5 5 6 6 6 6 6
7 4 7 14 15 17 14 14 14 18 16 7 7 8 9 8 8 8 8 7 7 7 7 6 6 6 6 6 5 5 6 6 6 6 6 6 5 6 6 6 6 6 7 7
5 4 13 6 1 6 11 13 14 14 11 8 8 8 8 8 8 8 7 7 7 7 7 6 6 6 5 5 5 6 6 6 6 6 6 6 6 7 7 6 6 6 7 7
5 9 13 9 5 6 8 9 9 12 11 9 7 7 7 6 6 7 7 7 7 6 6 6 6 5 5 5 5 6 7 7 6 6 6 6 7 7 6 6 7 7 7 7
8 9 11 4 1 2 4 7 2 5 7 5 4 6 4 3 5 6 6 6 6 5 5 6 5 4 5 6 6 7 7 7 6 6 7 7 7 7 6 6 7 7 7 8
13 12 11 3 3 5 6 3 1 3 5 5 6 6 5 5 5 6 6 6 5 5 5 5 4 4 6 7 8 7 6 6 6 7 7 7 7 6 6 6 7 8 8 8
9 11 11 3 5 6 4 4 4 5 5 6 7 7 6 6 6 6 6 6 6 6 6 5 5 6 7 8 7 6 6 6 7 7 6 6 7 6 6 7 7 8 8 8
9 8 3 3 5 6 5 6 6 5 6 6 7 7 7 7 7 7 7 7 6 6 7 6 6 6 9 8 6 6 6 7 7 7 6 6 7 6 6 6 6 6 6 7
8 10 8 8 8 7 7 7 7 7 8 7 8 8 8 8 7 7 7 7 6 7 7 7 7 7 8 7 6 6 8 8 7 7 7 6 6 6 6 6 6 7 7 7
11 10 9 9 8 8 8 8 10 10 9 9 9 9 9 8 8 8 7 7 6 7 8 8 8 8 7 7 6 7 8 8 7 7 6 6 6 6 7 8 7 7 7 7
11 9 9 9 8 8 9 10 10 10 10 8 8 9 9 8 8 7 7 7 7 7 8 8 8 8 8 7 7 8 7 7 6 5 5 5 6 6 8 11 12 14 14 12
11 9 9 10 9 8 9 9 9 9 9 8 8 8 8 8 7 7 7 7 8 8 8 8 8 9 8 7 7 8 8 7 6 5 5 5 5 6 6 7 10 13 14 15
9 8 9 9 8 8 8 8 8 8 8 7 7 7 7 7 7 7 8 8 8 8 8 8 8 9 8 6 7 8 8 7 6 6 5 6 6 6 6 6 6 6 8 11
8 7 8 8 7 7 6 6 6 7 7 7 6 7 7 7 8 8 8 7 7 8 8 8 9 9 7 6 7 7 7 6 5 5 5 6 6 6 6 7 7 7 6 6
5 5 5 6 7 7 6 6 7 8 7 7 7 7 7 8 8 8 8 7 7 9 8 8 10 9 7 6 7 6 6 8 7 6 6 6 6 6 6 6 6 6 7 6
4 5 5 6 7 7 7 7 7 8 8 8 8 8 8 8 8 9 8 8 8 9 9 9 10 8 7 7 7 6 6 6 8 6 6 6 6 6 6 6 6 6 7 6
5 5 5 6 6 7 8 8 8 8 8 8 8 8 8 8 9 10 9 8 9 9 9 9 8 8 8 7 6 6 6 6 6 6 6 6 6 6 6 6 7 8 6 6
4 5 5 6 7 7 7 8 8 8 8 8 8 8 9 9 10 10 9 9 9 10 9 8 8 8 8 8 7 6 6 6 6 6 6 7 7 6 6 6 7 7 6 6
4 5 6 7 7 7 7 8 8 8 8 8 8 9 9 10 9 9 9 9 9 8 9 9 9 8 8 8 7 6 6 7 7 7 6 6 6 6 6 6 7 7 6 6
6 7 7 7 8 8 8 8 8 9 9 8 9 10 10 10 9 8 8 9 9 8 8 10 8 7 7 7 7 6 7 7 7 7 7 7 7 7 6 6 6 6 6 6
7 7 8 9 9 9 8 8 8 9 10 9 9 9 9 10 9 9 9 9 9 9 8 7 7 8 9 9 7 7 7 7 7 6 6 6 6 6 6 7 6 6 6 6
8 8 9 9 10 10 10 9 9 9 10 10 10 10 10 9 8 8 9 7 7 9 8 7 9 12 13 9 7 7 7 7 7 7 7 6 6 6 6 7 6 5 5 5
9 9 10 9 9 10 11 11 9 8 10 10 10 10 10 8 8 7 8 9 11 12 8 9 12 13 12 7 6 7 7 7 7 7 7 6 6 6 6 6 5 5 5 5
10 10 10 9 9 9 10 10 10 9 10 8 10 10 8 7 8 8 8 9 11 11 8 9 12 12 8 6 6 6 6 6 6 6 6 6 6 5 5 5 5 5 4 4
10 9 9 9 9 8 8 8 8 8 7 8 8 7 6 6 7 8 7 8 10 11 9 7 7 7 6 6 6 6 6 6 6 6 6 5 5 5 4 4 5 4 4 4
10 9 8 8 8 7 7 7 8 8 8 8 9 8 7 7 7 7 8 7 7 7 6 6 6 5 5 5 5 5 5 5 5 4 4 4 4 4 4 5 4 4 4 4
Wind_Direction
261 267 260 255 247 229 225 232 243 255 259 267 267 271 275 274 272 267 261 258 259 264 267 268 267 263 259 258 254 247 244 244 247 250 248 247 249 250 252 252 254 255 254 253
263 258 258 262 252 242 240 243 248 259 267 269 275 275 273 271 269 263 263 262 263 266 267 266 265 265 263 261 254 246 246 247 248 247 245 246 250 251 253 254 254 252 251 252
263 267 281 261 244 231 230 231 236 246 256 268 270 269 270 270 263 258 261 263 264 265 262 261 261 262 264 264 256 247 248 250 246 243 244 245 247 247 249 253 254 253 253 253
264 254 246 257 160 223 232 244 237 247 260 268 273 284 283 273 263 263 266 267 268 268 265 263 261 262 264 262 254 250 251 250 246 244 246 247 246 247 249 251 251 252 253 254
235 251 267 269 230 202 221 254 238 241 259 276 287 289 277 268 260 267 273 274 274 274 271 267 264 265 262 257 254 254 254 254 250 246 247 247 248 251 252 252 253 253 254 254
229 244 254 269 132 176 214 255 213 235 262 276 267 267 289 320 292 281 282 282 283 280 269 265 267 263 254 256 256 255 257 257 255 248 247 248 251 255 254 253 256 257 254 252
235 248 261 274 137 165 226 286 16 265 271 260 251 276 305 301 293 289 288 287 287 280 272 270 270 256 254 256 256 259 261 258 253 248 247 250 253 252 252 254 257 256 257 255
223 236 250 149 160 212 277 328 296 287 276 260 265 281 286 287 290 291 289 290 288 282 277 277 266 254 257 260 264 265 260 257 253 250 248 246 248 250 251 252 256 257 258 259
221 240 308 200 247 277 293 282 281 280 274 263 269 276 283 285 287 290 289 290 288 282 281 278 265 255 261 268 272 266 262 259 258 255 249 244 243 247 249 248 251 255 256 259
254 263 272 270 275 277 272 276 283 281 279 270 269 274 278 282 284 283 283 284 284 280 278 280 277 267 265 272 268 261 261 262 260 256 253 248 245 243 243 244 247 251 254 257
258 272 287 273 270 273 278 283 283 281 274 266 265 267 270 276 278 277 278 280 277 274 276 280 281 276 274 272 267 261 261 261 259 254 254 253 250 247 246 248 247 252 255 256
260 269 267 277 280 279 278 279 282 282 278 271 263 266 270 271 274 277 279 279 276 275 277 282 285 282 280 272 262 259 260 259 255 253 252 254 258 262 246 248 254 253 255 257
266 278 274 283 282 276 273 277 279 276 273 273 271 268 270 272 275 276 278 279 278 281 283 285 285 282 279 272 260 254 256 258 256 254 252 253 255 260 271 261 247 250 253 255
263 270 272 272 275 278 277 279 280 276 272 272 274 274 271 272 274 275 277 280 282 282 282 284 284 282 282 274 262 258 258 256 253 256 254 254 254 258 263 270 275 270 256 255
263 260 266 279 283 284 286 283 279 277 280 281 277 273 271 271 274 277 281 284 284 281 281 282 281 282 284 273 263 261 259 256 253 255 254 252 252 254 258 262 267 274 278 270
283 278 274 275 280 287 289 282 277 279 284 284 283 280 278 277 279 282 283 281 277 278 280 281 280 283 283 272 266 262 256 253 253 256 255 251 249 249 253 257 261 265 268 272
266 277 282 286 290 292 290 287 283 284 284 282 283 284 283 282 282 282 282 280 274 274 275 274 277 282 277 269 265 263 262 259 251 254 252 250 249 250 252 254 257 262 266 267
258 268 273 277 282 287 290 290 285 281 280 282 285 282 278 277 278 281 285 287 284 281 276 271 274 278 276 271 265 261 260 260 257 256 256 253 253 253 253 254 256 261 267 267
278 279 282 281 279 280 280 282 284 282 281 279 276 275 275 274 274 278 283 283 280 280 281 280 276 274 274 270 265 259 256 257 258 258 257 258 260 257 255 255 257 260 263 264
290 286 284 285 283 280 281 284 285 284 282 278 275 275 276 276 277 278 279 275 269 272 280 282 282 278 273 269 261 257 254 255 258 260 259 256 256 257 258 258 259 261 261 260
296 294 291 289 289 288 285 286 286 284 284 279 272 272 276 279 279 276 276 279 281 280 279 278 275 272 270 267 262 257 255 255 257 258 257 257 257 257 257 258 258 259 260 260
290 289 289 290 290 290 290 288 284 283 285 282 278 275 275 277 277 273 264 265 276 281 281 277 274 271 271 272 264 257 255 255 256 256 256 257 257 257 258 258 258 258 258 257
285 286 287 286 286 288 290 287 281 280 280 280 280 279 276 274 274 273 277 274 275 278 278 273 275 278 278 274 263 257 255 254 254 254 255 255 255 256 258 259 258 258 258 258
286 286 284 284 285 284 284 285 283 279 278 279 275 272 272 276 274 264 265 279 282 282 279 278 281 281 280 271 262 257 254 253 253 254 255 254 253 254 256 258 260 260 258 259
283 284 284 283 281 277 279 284 286 283 281 278 278 276 269 263 268 278 280 280 281 283 281 280 280 281 276 269 263 259 257 253 252 253 252 251 252 253 255 255 255 257 258 259
281 283 282 279 278 280 283 283 282 283 285 285 285 284 280 276 273 274 276 278 279 278 277 276 276 275 268 266 265 263 261 261 258 254 251 252 252 252 252 252 255 255 256 258
281 280 281 281 278 273 274 275 276 279 280 281 286 289 287 284 280 278 278 277 276 274 274 273 271 268 267 266 266 265 263 259 256 254 252 249 248 247 247 248 252 255 255 255